Date,TemperatureHighF,TemperatureAvgF,TemperatureLowF,DewpointHighF,DewpointAvgF,DewpointLowF,HumidityHigh,HumidityAvg,HumidityLow,PressureMaxIn,PressureMinIn,WindSpeedMaxMPH,WindSpeedAvgMPH,GustSpeedMaxMPH,PrecipitationSumIn
2013-1-1,29.5,21.7,7.4,23.0,8.3,-3.6,77,57,39,29.92,29.65,17,9,55,0.00
2013-1-2,21.0,9.5,-2.6,9.6,-2.5,-14.8,72,58,45,30.15,29.86,12,5,38,0.00
2013-1-3,14.8,1.3,-9.8,6.0,-11.8,-18.7,77,55,27,30.19,29.95,11,2,25,0.00
2013-1-4,32.7,25.4,14.1,18.4,14.8,6.3,81,65,47,29.94,29.75,20,10,48,0.00
2013-1-5,33.4,26.6,13.8,22.5,13.0,7.5,80,58,35,30.23,29.76,15,6,43,0.01
2013-1-6,36.5,26.1,13.3,24.5,18.2,7.4,82,72,55,30.18,29.90,13,3,27,0.00
2013-1-7,32.1,23.7,7.4,26.6,13.5,1.4,83,66,38,30.36,29.91,12,4,32,0.00
2013-1-8,40.6,25.4,7.0,19.4,13.5,0.7,81,62,32,30.34,30.21,20,7,40,0.01
2013-1-9,39.6,27.5,12.4,25.7,17.7,7.1,81,68,48,30.39,29.95,16,4,50,0.00
2013-1-10,39.9,35.0,27.0,27.7,18.9,15.3,72,52,40,30.52,29.97,21,10,50,0.07
2013-1-11,34.7,27.8,19.4,30.0,20.0,14.9,93,73,50,30.51,30.17,9,3,26,0.01
2013-1-12,38.2,34.0,31.8,37.8,33.5,30.3,100,98,90,30.18,30.09,7,0,17,0.39
2013-1-13,45.2,38.6,33.1,45.2,38.3,33.1,100,99,86,30.11,29.93,18,2,31,0.03
2013-1-14,52.5,40.7,31.9,48.0,33.6,19.3,100,79,31,30.22,29.81,21,5,50,0.01
2013-1-15,33.1,29.3,24.5,23.9,20.6,17.6,88,70,53,30.31,30.20,9,1,19,0.00
2013-1-16,30.0,27.7,25.8,27.4,23.8,18.5,91,85,67,30.21,29.77,8,1,24,0.00
2013-1-17,34.1,26.9,16.7,26.1,17.0,-4.8,88,68,39,30.08,29.78,13,6,36,0.02
2013-1-18,19.7,11.4,2.2,0.3,-7.2,-15.8,61,43,23,30.40,30.04,16,4,43,0.00
2013-1-19,37.9,29.8,16.5,19.6,12.2,0.4,71,48,38,30.29,29.78,15,8,40,0.06
2013-1-20,42.1,33.3,18.4,30.4,15.5,-6.6,85,49,27,29.89,29.47,24,12,61,0.12
2013-1-21,23.2,16.9,11.7,12.4,-0.4,-9.8,81,49,30,30.03,29.78,18,6,48,0.00
2013-1-22,18.6,12.6,2.4,11.9,2.6,-8.3,82,65,31,30.03,29.74,17,5,42,0.00
2013-1-23,7.9,0.4,-9.6,-7.2,-18.4,-24.2,62,42,23,30.14,30.00,15,5,38,0.00
2013-1-24,11.4,0.7,-9.8,-17.6,-20.3,-21.8,62,38,21,30.25,30.08,21,10,53,0.00
2013-1-25,14.8,6.8,-1.0,0.1,-13.6,-17.8,66,39,24,30.31,30.07,14,5,32,0.00
2013-1-26,17.8,9.4,3.2,0.1,-7.8,-19.0,68,48,20,30.24,30.02,15,5,40,0.00
2013-1-27,25.4,13.1,5.0,-0.1,-8.5,-19.4,67,41,14,30.47,30.23,15,5,34,0.00
2013-1-28,21.0,13.2,2.2,15.0,4.4,-7.3,82,68,37,30.45,30.02,8,2,21,0.00
2013-1-29,31.5,25.2,18.3,28.1,19.8,13.4,92,80,69,30.17,30.03,9,2,21,0.07
2013-1-30,51.3,38.4,30.3,51.3,38.2,28.3,100,99,92,30.09,29.36,13,5,40,0.52
2013-1-31,58.0,39.7,24.4,54.2,27.4,1.8,100,64,36,29.48,28.82,29,16,77,0.77
2013-2-1,25.0,19.8,14.0,16.0,4.6,-4.2,84,52,38,30.04,29.48,22,10,49,0.00
2013-2-2,20.8,15.8,7.9,11.7,2.7,-3.7,77,57,39,30.19,30.01,12,4,37,0.00
2013-2-3,27.2,19.7,9.9,12.1,9.5,5.2,82,65,44,30.02,29.70,6,1,13,0.00
2013-2-4,25.1,18.1,12.4,9.7,0.4,-8.7,75,48,25,29.88,29.68,23,9,51,0.00
2013-2-5,27.6,16.7,5.2,9.6,0.2,-3.9,74,49,26,30.00,29.87,12,3,28,0.00
2013-2-6,31.3,23.1,13.3,18.6,8.9,-9.3,83,57,28,30.29,29.88,16,6,46,0.00
2013-2-7,24.2,15.0,6.7,-2.9,-7.5,-11.7,57,37,24,30.52,30.29,9,2,27,0.00
2013-2-8,18.0,15.4,13.8,11.2,6.4,-9.0,84,70,29,30.46,29.83,19,10,43,0.00
2013-2-9,17.7,12.4,7.7,13.4,7.7,1.1,85,81,74,30.27,29.78,18,9,46,0.00
2013-2-10,29.1,11.2,-7.9,16.2,2.4,-15.2,79,68,38,30.45,30.28,11,3,25,0.22
2013-2-11,30.9,19.6,3.7,30.9,15.4,-1.9,100,84,56,30.34,29.60,11,3,27,0.00
2013-2-12,38.9,33.2,28.5,31.5,25.3,22.9,100,73,57,29.82,29.59,17,9,45,0.21
2013-2-13,35.6,29.3,22.7,23.0,17.9,14.6,78,63,43,29.83,29.72,9,3,30,0.01
2013-2-14,40.1,27.7,21.3,19.8,17.2,13.9,82,67,34,29.96,29.69,11,2,28,0.09
2013-2-15,46.7,30.8,17.0,25.1,19.5,13.3,86,66,32,29.95,29.86,19,5,45,0.06
2013-2-16,32.7,28.0,19.7,24.8,16.2,-1.8,88,63,38,29.93,29.78,10,3,34,0.02
2013-2-17,19.4,14.4,9.3,1.9,-2.6,-5.9,58,46,38,29.78,29.49,25,13,59,0.00
2013-2-18,25.4,16.1,7.0,-4.5,-8.3,-12.6,55,35,18,30.11,29.71,26,11,58,0.00
2013-2-19,39.8,26.5,10.7,31.9,10.8,-7.4,98,55,24,30.14,29.54,13,3,30,0.10
2013-2-20,32.9,25.8,19.4,32.7,17.0,9.7,99,70,50,29.71,29.50,19,12,49,0.00
2013-2-21,26.1,19.6,15.1,14.2,8.1,2.6,80,61,41,30.25,29.71,21,9,45,0.00
2013-2-22,39.9,27.7,12.6,18.7,14.4,8.4,85,59,35,30.42,30.28,11,2,31,0.01
2013-2-23,31.3,29.0,25.8,28.0,22.9,16.1,91,78,60,30.27,29.92,10,4,25,0.00
2013-2-24,33.8,30.8,29.0,30.5,28.5,25.9,98,91,83,29.93,29.75,5,2,17,0.15
2013-2-25,34.1,30.2,24.1,29.2,26.9,21.3,98,87,79,30.21,29.89,5,1,18,0.09
2013-2-26,40.5,32.0,27.2,30.4,28.2,25.2,98,86,64,30.31,30.13,10,3,26,0.16
2013-2-27,34.1,31.2,28.8,32.3,29.3,24.9,100,93,78,30.14,29.63,22,12,60,0.00
2013-2-28,40.6,32.7,26.7,34.2,30.7,25.5,100,93,77,29.62,29.53,9,2,29,0.45
2013-3-1,35.5,32.1,29.4,33.2,25.9,22.9,100,78,62,29.69,29.53,9,4,30,0.05
2013-3-2,34.9,30.2,25.4,23.9,22.2,19.6,81,72,56,29.69,29.63,10,5,34,0.03
2013-3-3,33.2,27.5,23.0,23.6,20.7,18.8,84,76,65,29.66,29.58,8,4,26,0.08
2013-3-4,31.3,27.0,23.3,21.1,18.1,15.9,77,69,57,29.81,29.60,16,8,40,0.00
2013-3-5,44.3,31.1,25.0,28.3,21.9,16.7,90,70,42,30.06,29.81,8,3,28,0.07
2013-3-6,34.1,31.6,28.8,29.6,26.7,22.2,92,82,69,30.17,30.04,15,9,40,0.02
2013-3-7,34.4,30.0,27.2,27.9,23.3,20.3,87,76,64,30.15,30.06,13,6,32,0.02
2013-3-8,39.9,31.1,25.1,25.0,21.7,18.1,88,70,42,30.23,30.01,10,4,33,0.11
2013-3-9,55.7,33.5,19.1,22.0,15.7,1.0,87,57,11,30.32,30.21,9,3,24,0.04
2013-3-10,51.3,34.8,19.4,26.8,21.6,16.2,89,63,29,30.39,30.23,12,4,26,0.00
2013-3-11,47.7,38.2,30.7,33.5,26.7,18.0,87,66,31,30.25,30.07,10,2,25,0.00
2013-3-12,46.5,41.5,37.6,46.5,40.1,33.8,100,95,75,30.07,29.67,15,7,32,0.73
2013-3-13,43.6,35.7,26.3,36.8,27.0,17.8,93,73,38,29.76,29.70,15,4,36,0.00
2013-3-14,29.3,24.5,15.9,23.4,12.1,2.0,86,60,39,29.83,29.68,19,8,45,0.00
2013-3-15,34.3,22.9,13.5,25.3,8.5,-0.9,84,55,27,29.85,29.59,17,8,41,0.00
2013-3-16,33.5,25.4,18.4,16.2,8.6,1.6,73,50,27,29.87,29.67,9,4,29,0.00
2013-3-17,30.7,21.9,15.1,12.4,3.7,-5.3,76,48,22,30.31,29.87,19,5,59,0.00
2013-3-18,34.6,20.8,3.9,15.0,-1.9,-8.5,77,41,18,30.45,30.20,8,1,25,0.00
2013-3-19,29.4,26.1,22.1,27.2,23.2,17.4,93,89,67,30.18,29.69,20,10,45,0.00
2013-3-20,32.9,25.3,19.7,19.4,17.2,13.2,89,72,52,29.75,29.65,21,8,48,0.20
2013-3-21,38.9,25.9,13.1,13.5,10.2,2.9,82,54,23,29.76,29.57,15,5,31,0.22
2013-3-22,35.6,25.8,12.3,21.5,13.7,8.1,85,62,34,29.70,29.61,14,5,33,0.05
2013-3-23,38.0,29.1,21.4,20.4,15.8,11.1,79,59,36,29.76,29.63,20,10,76,0.00
2013-3-24,41.8,32.9,24.4,20.0,19.0,16.9,79,58,37,29.82,29.74,12,6,35,0.00
2013-3-25,42.9,29.3,18.0,26.5,20.5,14.5,87,71,44,29.78,29.54,10,3,29,0.00
2013-3-26,46.4,35.4,26.9,26.7,20.3,11.4,87,58,26,29.78,29.56,11,3,32,0.00
2013-3-27,47.3,34.9,20.8,30.0,21.0,17.0,87,61,30,29.88,29.76,14,4,42,0.00
2013-3-28,46.4,37.0,31.6,31.6,28.9,24.9,95,74,43,30.02,29.87,12,2,30,0.02
2013-3-29,49.1,39.2,30.3,34.1,28.7,26.3,87,67,44,30.04,29.98,10,4,28,0.00
2013-3-30,51.3,36.7,26.7,27.3,19.5,5.9,90,59,16,30.09,30.00,13,3,32,0.00
2013-3-31,52.8,36.9,20.5,34.5,19.0,11.3,90,57,20,30.10,29.75,16,4,43,0.14
2013-4-1,51.6,37.2,27.8,39.6,29.6,5.8,100,77,31,29.74,29.46,18,6,63,0.30
2013-4-2,31.8,27.0,22.7,17.9,7.2,1.6,66,43,29,29.85,29.73,23,12,58,0.00
2013-4-3,40.8,30.0,22.5,15.9,5.0,-3.9,67,37,15,30.12,29.86,20,13,54,0.00
2013-4-4,52.2,36.6,24.5,17.0,8.7,0.7,60,35,14,30.26,29.94,16,9,40,0.00
2013-4-5,53.2,40.2,30.9,24.4,19.3,10.3,69,46,20,29.94,29.67,18,10,39,0.00
2013-4-6,41.6,30.3,22.2,16.9,3.5,-8.0,63,35,12,30.31,29.87,16,8,50,0.00
2013-4-7,55.4,39.0,22.9,35.2,16.0,-0.5,76,42,21,30.30,29.90,24,7,49,0.00
2013-4-8,60.1,45.2,35.8,35.9,30.8,21.7,90,61,23,30.06,29.90,17,6,35,0.00
2013-4-9,60.2,45.9,38.9,44.8,38.3,32.5,99,77,42,30.02,29.86,17,5,40,0.14
2013-4-10,52.9,44.6,39.3,46.4,41.6,35.2,100,90,68,29.96,29.84,7,1,21,0.65
2013-4-11,42.3,38.2,34.1,42.3,30.5,19.3,100,76,45,30.14,29.85,9,2,28,0.05
2013-4-12,34.1,30.5,28.2,28.9,27.0,23.4,92,87,74,30.16,29.85,16,8,46,0.06
2013-4-13,48.8,37.5,30.3,34.8,31.1,28.3,94,79,47,29.91,29.76,11,3,29,0.50
2013-4-14,47.6,38.7,30.4,34.1,28.4,19.8,100,69,35,30.21,29.88,18,6,42,0.01
2013-4-15,59.8,41.9,25.4,31.7,26.6,22.2,92,60,26,30.35,30.21,9,3,22,0.00
2013-4-16,61.2,47.6,32.8,50.2,38.1,28.9,91,71,44,30.33,29.97,20,7,52,0.07
2013-4-17,59.5,49.1,33.4,50.3,30.2,20.4,93,54,22,30.32,29.98,13,6,34,0.00
2013-4-18,58.4,45.9,28.4,39.6,25.2,18.3,90,49,27,30.40,30.07,17,6,52,0.00
2013-4-19,71.3,60.5,49.8,58.6,52.0,40.5,90,74,55,30.06,29.53,24,11,65,0.13
2013-4-20,57.8,43.7,34.4,54.9,29.9,14.7,98,62,29,30.20,29.58,23,10,50,0.26
2013-4-21,50.1,36.6,27.8,19.8,13.3,3.9,70,41,16,30.67,30.20,12,6,35,0.00
2013-4-22,51.9,37.3,25.4,28.9,18.6,7.5,84,53,18,30.74,30.57,15,5,39,0.00
2013-4-23,37.9,35.0,31.2,36.5,30.7,26.1,98,84,77,30.57,30.16,11,5,30,0.00
2013-4-24,74.6,53.1,37.8,48.5,38.2,17.2,100,67,12,30.15,29.70,14,5,39,0.01
2013-4-25,58.6,48.5,31.9,49.3,28.2,11.0,85,50,18,30.28,29.69,24,8,48,0.01
2013-4-26,56.3,43.8,27.9,35.2,26.4,20.1,91,55,27,30.39,30.28,14,3,33,0.00
2013-4-27,64.3,47.3,29.5,35.9,27.0,13.9,92,54,14,30.41,30.25,10,2,24,0.00
2013-4-28,70.9,50.3,30.6,37.1,30.7,25.7,89,53,20,30.30,30.15,12,3,32,0.00
2013-4-29,67.1,52.7,38.2,37.7,33.5,24.3,85,52,25,30.22,30.12,17,5,32,0.00
2013-4-30,72.3,59.2,48.0,34.4,25.9,20.8,57,30,17,30.30,30.19,9,3,28,0.00
2013-5-1,74.7,56.1,35.6,35.3,25.4,11.3,82,39,9,30.42,30.30,7,2,25,0.00
2013-5-2,79.9,56.1,38.5,41.6,31.9,19.7,85,47,15,30.44,30.29,17,4,39,0.00
2013-5-3,67.4,52.3,36.3,41.8,34.5,28.9,84,54,28,30.51,30.35,10,3,26,0.00
2013-5-4,72.5,54.3,36.6,46.0,34.1,20.4,100,55,14,30.35,30.20,10,4,28,0.00
2013-5-5,70.8,52.9,32.4,36.4,29.8,18.5,89,49,14,30.29,30.17,10,3,26,0.00
2013-5-6,76.8,55.6,32.5,40.8,30.5,17.9,99,49,12,30.22,30.08,10,2,21,0.00
2013-5-7,81.4,62.5,40.8,50.9,39.3,26.4,99,52,14,30.12,30.02,7,2,20,0.00
2013-5-8,70.8,59.9,48.2,60.2,53.7,46.0,100,81,49,30.15,30.01,11,3,29,0.18
2013-5-9,67.1,59.6,55.4,58.3,55.7,52.5,100,88,61,30.00,29.84,9,1,24,0.73
2013-5-10,75.4,62.1,49.2,58.1,53.2,46.5,100,76,36,29.94,29.83,9,2,25,0.00
2013-5-11,65.5,61.9,57.2,60.1,55.5,50.5,99,80,59,29.83,29.62,18,5,40,0.17
2013-5-12,62.7,53.9,42.2,57.0,41.5,18.2,100,67,28,29.75,29.55,19,5,45,0.00
2013-5-13,48.9,42.1,37.8,31.4,24.8,20.9,77,51,35,30.04,29.76,21,9,43,0.00
2013-5-14,53.9,42.9,33.1,31.5,27.0,18.4,88,58,25,30.06,29.97,11,3,32,0.00
2013-5-15,61.3,45.6,29.1,49.4,34.8,19.8,99,73,21,30.04,29.60,15,4,38,0.10
2013-5-16,74.9,59.2,43.6,49.1,37.8,25.2,100,55,17,29.80,29.58,23,9,55,0.00
2013-5-17,64.5,52.0,42.2,40.6,35.7,27.4,83,58,26,30.21,29.80,13,4,35,0.00
2013-5-18,71.3,53.7,34.9,44.5,35.5,22.0,99,59,18,30.28,30.19,7,1,21,0.00
2013-5-19,65.6,53.9,45.4,53.2,47.6,43.0,100,81,54,30.30,30.14,8,1,29,0.20
2013-5-20,76.3,62.1,53.1,59.6,56.1,53.1,100,83,51,30.13,29.91,12,4,30,0.00
2013-5-21,78.6,61.2,49.4,62.6,56.6,47.6,100,86,57,30.05,29.83,15,3,38,1.27
2013-5-22,63.9,54.8,49.1,58.0,53.6,49.1,100,96,79,29.93,29.82,16,4,51,0.70
2013-5-23,74.6,61.0,50.8,64.3,57.6,50.8,100,89,64,29.87,29.72,14,5,34,0.02
2013-5-24,64.3,55.4,43.6,63.5,52.5,40.6,100,90,78,29.87,29.59,10,3,35,0.41
2013-5-25,43.8,40.6,33.7,43.3,39.2,33.0,99,94,90,29.86,29.77,11,5,39,0.59
2013-5-26,51.9,41.9,34.0,40.1,35.8,33.6,100,81,55,30.07,29.74,13,5,41,0.05
2013-5-27,67.8,51.4,37.3,42.0,34.0,26.4,91,59,23,30.17,30.05,12,4,40,0.00
2013-5-28,71.5,54.8,35.3,46.2,37.5,31.3,100,59,26,30.23,30.11,6,1,21,0.00
2013-5-29,59.9,55.1,50.1,58.0,52.3,40.8,100,91,58,30.12,29.97,6,1,18,0.17
2013-5-30,84.7,70.0,55.6,65.1,60.4,55.6,100,76,39,30.04,29.98,10,5,37,0.00
2013-5-31,90.5,73.5,58.4,64.7,59.0,46.7,100,67,25,30.06,29.90,14,4,36,0.00
2013-6-1,89.9,76.8,63.2,66.4,60.6,51.9,92,62,28,29.92,29.79,16,5,34,0.00
2013-6-2,87.2,72.9,64.2,66.8,64.5,61.0,100,78,43,29.79,29.61,14,6,41,0.93
2013-6-3,75.1,65.0,51.9,64.8,54.7,39.4,100,74,32,29.81,29.72,16,4,38,0.00
2013-6-4,67.9,55.6,45.5,44.7,39.9,36.6,80,57,33,30.08,29.80,12,5,40,0.00
2013-6-5,71.1,57.6,42.8,44.9,39.8,30.2,93,57,26,30.17,30.06,9,1,22,0.00
2013-6-6,69.9,59.0,46.2,53.1,45.4,34.8,88,63,36,30.16,30.06,9,2,26,0.01
2013-6-7,55.4,51.1,49.2,51.9,49.5,46.8,100,94,85,30.07,29.86,8,3,27,0.80
2013-6-8,65.8,58.0,50.2,57.7,54.4,50.2,100,89,70,29.99,29.69,12,3,30,0.46
2013-6-9,73.3,62.0,52.0,56.5,52.3,46.6,100,74,40,30.16,29.99,13,3,31,0.00
2013-6-10,67.6,58.3,47.4,58.2,53.0,46.8,100,84,57,30.18,30.00,4,1,22,0.07
2013-6-11,56.3,54.4,52.2,55.9,54.1,52.2,100,99,94,29.97,29.56,9,3,35,0.78
2013-6-12,61.0,55.2,48.6,53.6,51.9,47.8,100,89,71,29.82,29.55,8,2,41,0.09
2013-6-13,63.1,54.1,45.4,54.6,50.8,45.4,100,90,58,29.81,29.69,3,0,12,0.23
2013-6-14,73.2,60.9,50.5,56.1,49.6,37.7,100,72,28,29.77,29.66,7,2,28,0.01
2013-6-15,73.7,62.8,51.4,51.3,41.6,30.3,87,49,21,29.91,29.77,10,3,30,0.00
2013-6-16,71.3,60.0,48.8,58.6,50.5,43.7,94,73,45,29.91,29.68,11,3,28,0.01
2013-6-17,77.6,63.0,53.3,63.5,56.7,51.3,100,83,41,29.86,29.74,13,4,42,0.47
2013-6-18,59.5,55.5,50.8,59.5,54.5,50.6,100,97,88,29.97,29.86,5,0,20,0.20
2013-6-19,70.3,56.4,43.5,53.6,44.1,32.8,100,71,29,30.14,29.93,6,2,22,0.00
2013-6-20,76.5,58.5,41.2,49.4,42.9,28.0,100,64,19,30.24,30.15,8,2,26,0.00
2013-6-21,81.6,66.1,50.7,57.4,50.3,42.7,88,62,27,30.22,30.15,10,3,27,0.00
2013-6-22,80.5,67.2,52.8,65.7,58.6,50.9,100,76,46,30.20,30.06,14,2,36,0.03
2013-6-23,87.2,72.2,62.6,69.5,65.0,60.0,100,80,48,30.09,29.91,12,3,34,0.06
2013-6-24,87.8,74.4,66.9,72.2,66.1,61.0,100,78,43,29.96,29.86,13,6,38,0.07
2013-6-25,86.3,73.2,65.5,68.1,64.5,61.5,100,77,44,29.91,29.71,14,5,34,0.36
2013-6-26,73.9,67.3,62.7,70.4,66.4,62.7,100,97,79,29.81,29.69,7,1,26,1.83
2013-6-27,73.9,66.8,61.3,66.8,64.5,61.3,100,93,76,29.80,29.72,13,2,31,0.01
2013-6-28,72.0,62.1,55.7,65.8,60.8,55.7,100,96,79,29.72,29.45,15,5,42,1.08
2013-6-29,81.6,70.4,64.3,69.3,64.4,59.4,100,84,48,29.65,29.47,12,3,38,0.20
2013-6-30,80.9,70.7,63.4,68.1,65.7,62.0,100,86,54,29.88,29.65,10,2,35,0.52
2013-7-1,76.3,70.0,65.3,69.9,67.8,65.3,100,93,76,30.02,29.88,3,0,14,0.14
2013-7-2,77.0,69.1,61.0,70.8,66.5,61.0,100,92,76,30.16,30.00,9,3,28,0.32
2013-7-3,85.1,73.0,61.0,72.5,66.9,61.0,100,83,55,30.15,30.07,13,4,32,0.02
2013-7-4,88.4,78.3,70.3,72.4,69.5,66.2,100,76,51,30.15,30.02,13,5,31,0.08
2013-7-5,89.9,77.8,68.3,73.7,69.6,64.1,100,79,45,30.11,29.99,10,3,33,0.00
2013-7-6,84.7,75.4,66.3,68.9,66.3,61.3,94,75,46,30.04,29.95,12,4,34,0.00
2013-7-7,87.6,74.1,64.7,74.0,66.6,61.2,100,80,49,30.00,29.87,9,2,26,0.38
2013-7-8,83.0,72.4,65.5,72.0,69.1,65.2,100,91,55,30.02,29.87,12,2,27,0.68
2013-7-9,77.2,69.1,63.7,67.5,64.7,61.9,100,86,69,30.08,30.01,6,2,24,0.01
2013-7-10,75.3,69.1,65.0,72.0,68.2,65.0,100,97,82,30.02,29.75,8,3,28,1.04
2013-7-11,79.9,71.8,60.9,70.6,66.1,58.8,100,84,57,29.95,29.71,9,3,26,0.01
2013-7-12,79.4,67.8,57.3,63.4,59.0,55.0,100,76,47,30.18,29.95,4,0,18,0.00
2013-7-13,75.8,66.9,57.2,68.6,62.2,56.9,100,86,65,30.29,30.18,3,0,14,0.01
2013-7-14,84.9,74.5,67.1,70.9,67.8,64.4,100,82,55,30.28,30.18,8,2,21,0.00
2013-7-15,90.3,75.2,63.9,70.4,65.1,57.8,100,75,35,30.19,30.08,6,1,24,0.00
2013-7-16,87.0,75.0,64.3,69.8,64.8,61.8,95,73,46,30.16,30.11,6,2,24,0.00
2013-7-17,91.0,76.7,63.1,70.6,65.8,60.5,100,73,37,30.16,29.92,11,3,29,0.00
2013-7-18,91.2,76.6,69.4,72.3,68.8,63.3,100,80,42,29.98,29.89,10,2,32,1.09
2013-7-19,91.2,79.0,68.4,72.1,69.1,64.9,100,75,42,29.90,29.65,18,8,46,0.00
2013-7-20,83.2,72.7,64.8,69.3,65.6,62.1,100,80,51,29.77,29.62,18,7,40,0.08
2013-7-21,79.2,68.5,60.1,65.2,60.9,56.1,100,79,46,29.96,29.78,8,1,25,0.00
2013-7-22,76.5,66.2,59.2,67.7,63.8,59.2,100,93,73,30.00,29.86,7,1,26,0.56
2013-7-23,76.1,66.4,63.2,69.1,65.2,62.0,100,96,74,29.86,29.52,4,1,22,1.60
2013-7-24,75.3,66.3,52.2,66.0,59.5,46.5,100,80,56,29.99,29.55,9,3,28,0.00
2013-7-25,68.8,58.3,46.2,58.3,50.8,44.6,99,78,55,30.08,29.98,3,0,14,0.00
2013-7-26,72.1,62.8,58.6,61.2,58.6,55.8,99,87,65,30.06,29.94,5,1,17,0.11
2013-7-27,81.2,66.9,55.3,64.6,57.5,49.9,100,76,37,30.02,29.94,6,1,22,0.00
2013-7-28,78.5,68.2,58.1,67.4,62.4,56.9,100,83,56,29.98,29.92,9,2,26,0.05
2013-7-29,80.3,69.8,59.6,67.8,62.5,56.7,100,80,47,30.03,29.93,10,2,26,0.01
2013-7-30,77.7,65.2,54.5,57.9,53.9,49.2,95,70,38,30.09,30.01,10,2,25,0.00
2013-7-31,79.4,66.8,53.9,62.3,55.7,49.4,100,71,41,30.11,30.00,9,2,26,0.00
2013-8-1,77.2,64.3,54.5,64.3,59.4,54.5,100,85,55,30.00,29.81,10,1,30,0.20
2013-8-2,78.3,67.7,58.7,63.9,58.2,46.6,100,75,36,29.82,29.74,16,3,42,0.00
2013-8-3,77.9,64.7,56.0,59.6,54.7,48.9,97,73,39,29.83,29.73,15,4,40,0.03
2013-8-4,71.6,61.5,52.3,59.7,52.9,48.7,100,75,47,29.88,29.77,10,2,28,0.02
2013-8-5,72.1,59.2,48.6,49.4,43.0,31.1,90,60,22,30.03,29.88,10,3,36,0.00
2013-8-6,73.7,59.7,44.9,54.7,48.3,43.5,100,70,36,30.11,30.03,3,0,17,0.00
2013-8-7,76.5,64.8,52.0,59.8,54.4,50.8,100,72,45,30.15,30.04,2,0,22,0.00
2013-8-8,80.9,71.2,64.0,67.4,63.6,57.2,90,78,60,30.03,29.94,9,3,28,0.00
2013-8-9,74.2,70.3,66.1,71.8,68.0,65.2,100,92,83,29.94,29.70,6,1,27,0.45
2013-8-10,77.2,66.9,52.8,65.8,54.2,41.0,100,69,28,30.00,29.76,12,4,34,0.00
2013-8-11,75.3,60.9,49.1,58.0,50.5,43.1,100,73,37,30.06,29.98,9,2,28,0.00
2013-8-12,78.5,64.4,54.4,58.7,53.3,49.9,91,70,39,30.00,29.88,9,2,24,0.00
2013-8-13,68.1,62.0,56.3,66.8,60.9,54.7,100,96,86,29.89,29.66,3,0,16,0.68
2013-8-14,68.6,60.2,52.8,64.0,51.8,46.3,100,75,51,29.93,29.64,12,5,38,0.00
2013-8-15,71.8,59.3,48.3,54.9,48.6,44.7,92,71,41,30.08,29.93,12,4,34,0.00
2013-8-16,74.4,60.7,50.1,58.0,51.2,48.2,94,74,42,30.17,30.06,9,2,26,0.00
2013-8-17,78.1,61.7,49.2,59.6,53.0,48.8,100,77,40,30.26,30.17,4,1,16,0.00
2013-8-18,74.2,62.8,52.5,61.0,56.0,52.5,100,81,49,30.25,30.05,3,0,16,0.00
2013-8-19,80.9,65.8,54.8,63.1,57.3,53.0,100,77,40,30.05,29.92,12,3,28,0.00
2013-8-20,84.1,67.3,56.6,63.4,58.4,52.5,100,77,35,30.07,29.96,8,1,19,0.00
2013-8-21,85.3,69.4,57.6,65.6,60.1,57.3,100,75,43,30.13,29.99,10,2,25,0.00
2013-8-22,84.0,72.2,60.9,66.8,60.5,52.3,100,70,34,29.99,29.77,10,4,34,0.05
2013-8-23,73.3,63.9,51.9,66.1,54.8,45.0,100,76,37,30.14,29.80,7,2,27,0.01
2013-8-24,78.1,57.5,43.8,54.6,46.2,35.6,100,73,23,30.32,30.14,1,0,10,0.00
2013-8-25,78.8,60.4,44.9,54.7,49.2,42.9,100,72,28,30.36,30.12,7,1,26,0.00
2013-8-26,75.3,66.8,59.5,65.6,61.3,54.8,100,83,65,30.13,29.84,13,5,31,0.13
2013-8-27,82.0,70.7,62.7,69.4,65.2,62.5,100,85,54,29.87,29.80,3,0,13,0.00
2013-8-28,83.0,69.3,60.7,68.1,64.4,60.7,100,86,55,29.97,29.82,12,1,36,0.89
2013-8-29,67.3,63.7,61.3,64.8,61.8,59.0,100,94,82,30.05,29.92,3,1,18,0.00
2013-8-30,83.0,69.2,60.2,67.7,62.2,58.4,100,80,50,30.00,29.77,10,3,27,0.00
2013-8-31,77.0,70.6,65.6,70.6,66.6,63.4,100,87,77,29.79,29.72,12,4,26,0.02
2013-9-1,79.2,71.7,66.3,70.9,67.7,66.0,100,88,67,29.83,29.75,10,1,25,0.03
2013-9-2,73.9,69.4,66.0,71.8,68.6,65.6,100,97,86,29.82,29.67,7,1,29,0.86
2013-9-3,73.5,64.2,56.7,65.6,60.6,54.4,100,89,60,29.78,29.67,10,2,27,0.00
2013-9-4,76.5,64.1,55.7,57.3,53.9,47.3,96,72,42,29.87,29.78,13,5,36,0.00
2013-9-5,64.2,57.6,43.2,55.8,46.3,32.5,92,69,31,30.14,29.82,9,2,35,0.01
2013-9-6,68.4,50.4,37.5,48.4,39.5,33.5,100,71,33,30.23,30.05,8,2,25,0.00
2013-9-7,70.9,58.9,48.6,53.5,46.5,40.6,84,65,39,30.05,29.80,13,4,29,0.00
2013-9-8,61.8,56.6,42.1,55.4,45.0,35.4,87,67,41,30.07,29.72,11,4,38,0.00
2013-9-9,67.3,51.8,37.3,48.2,41.0,30.8,100,71,29,30.21,30.07,10,3,27,0.00
2013-9-10,70.6,62.0,53.1,67.3,59.0,47.7,100,90,73,30.08,29.98,12,3,33,0.15
2013-9-11,90.3,76.7,66.8,73.8,69.3,64.0,100,81,50,30.02,29.87,17,6,45,0.08
2013-9-12,76.7,68.2,64.7,70.8,66.1,62.9,100,93,79,29.89,29.62,14,3,32,0.90
2013-9-13,65.0,61.2,53.8,64.8,59.1,50.0,100,93,83,29.77,29.57,7,2,24,0.23
2013-9-14,58.6,53.8,46.5,50.7,48.6,46.5,100,83,68,30.03,29.76,6,2,24,0.00
2013-9-15,66.3,53.4,43.6,53.7,47.3,43.5,100,82,52,30.13,30.00,11,3,31,0.00
2013-9-16,59.3,52.1,38.6,53.6,45.5,33.0,100,79,55,30.26,29.96,12,3,32,0.09
2013-9-17,64.5,45.5,32.9,48.1,37.1,32.2,100,76,38,30.42,30.26,4,1,17,0.00
2013-9-18,71.1,51.8,37.8,54.5,42.4,31.6,100,76,28,30.31,30.11,9,2,21,0.00
2013-9-19,75.6,56.4,42.3,56.9,47.3,36.9,100,77,28,30.14,30.01,9,1,17,0.00
2013-9-20,76.1,58.8,44.1,56.8,50.9,44.1,100,79,43,30.09,29.96,2,0,17,0.00
2013-9-21,70.8,61.1,46.5,59.6,53.5,41.8,100,78,39,29.96,29.62,17,4,43,0.00
2013-9-22,67.3,57.8,46.5,61.7,51.5,40.0,100,80,59,29.83,29.54,14,5,34,0.58
2013-9-23,54.4,46.9,41.8,40.0,37.4,34.2,83,70,54,30.00,29.83,11,4,44,0.00
2013-9-24,61.8,50.2,44.5,43.9,38.3,33.4,86,65,35,29.97,29.82,11,4,38,0.00
2013-9-25,62.4,52.8,43.8,48.9,44.7,40.9,90,75,56,29.97,29.87,5,1,20,0.00
2013-9-26,64.3,52.3,42.2,48.0,44.4,40.3,97,76,48,30.13,29.97,4,1,19,0.00
2013-9-27,65.5,53.2,45.5,53.3,48.2,44.4,98,85,53,30.27,30.13,3,0,11,0.00
2013-9-28,71.6,53.6,40.5,53.6,47.0,40.5,100,82,44,30.34,30.24,3,0,11,0.00
2013-9-29,69.3,53.0,43.2,57.2,47.6,42.3,100,85,47,30.24,30.08,4,0,16,0.00
2013-9-30,70.3,52.2,40.8,53.1,45.7,39.7,100,83,40,30.10,29.94,3,0,16,0.00
2013-10-1,74.2,55.5,39.8,57.9,48.4,39.8,100,81,46,29.99,29.84,7,2,28,0.00
2013-10-2,74.9,60.4,49.1,57.3,53.5,49.1,100,80,50,29.93,29.81,14,4,36,0.00
2013-10-3,71.5,57.7,45.8,53.2,47.0,39.2,100,72,34,30.07,29.93,11,2,25,0.00
2013-10-4,62.6,53.0,43.1,53.8,49.3,42.9,100,88,66,30.09,30.02,3,0,13,0.00
2013-10-5,61.5,57.0,54.2,54.8,52.5,48.0,100,86,64,30.09,30.03,1,0,12,0.03
2013-10-6,56.5,50.5,46.2,54.2,48.1,42.5,100,92,70,30.20,30.09,9,3,32,0.21
2013-10-7,67.8,55.3,49.8,64.5,54.5,47.6,100,97,84,30.12,29.67,14,5,53,0.33
2013-10-8,61.0,49.0,36.0,47.5,38.7,29.7,93,72,31,30.38,29.88,12,4,31,0.00
2013-10-9,61.2,43.2,30.7,44.5,36.4,30.7,100,81,39,30.48,30.35,4,0,19,0.00
2013-10-10,60.1,46.6,35.3,48.5,41.1,34.8,100,84,45,30.35,30.16,2,0,8,0.00
2013-10-11,65.5,51.0,42.1,51.3,44.9,40.7,100,83,41,30.17,30.10,1,0,11,0.00
2013-10-12,53.6,47.0,38.8,52.0,45.8,38.8,100,96,89,30.37,30.17,6,1,21,0.00
2013-10-13,58.1,48.5,40.3,47.2,43.8,38.8,100,85,61,30.43,30.36,6,1,24,0.00
2013-10-14,65.8,52.4,37.6,54.1,46.4,37.1,100,82,51,30.36,30.20,8,1,19,0.00
2013-10-15,60.5,56.7,53.1,53.2,51.4,48.8,93,83,72,30.24,30.13,6,1,24,0.00
2013-10-16,57.5,53.2,48.9,49.8,47.9,45.1,92,82,71,30.13,29.86,5,2,22,0.00
2013-10-17,68.1,57.0,48.5,52.9,48.5,43.2,94,76,41,29.85,29.66,12,5,30,0.02
2013-10-18,60.4,53.1,46.5,53.2,45.4,34.6,100,77,54,29.84,29.54,15,8,50,0.10
2013-10-19,62.7,51.3,37.0,44.3,38.0,34.8,93,62,39,29.92,29.67,14,5,33,0.01
2013-10-20,55.0,48.0,35.5,45.8,36.2,29.1,92,65,40,29.98,29.62,20,8,46,0.00
2013-10-21,62.0,46.2,32.2,39.1,34.9,30.7,100,69,39,30.07,29.91,12,2,30,0.00
2013-10-22,54.7,47.4,40.2,47.2,40.3,30.3,92,76,64,29.91,29.68,15,4,36,0.01
2013-10-23,51.9,41.0,30.7,34.5,29.5,21.4,91,66,30,29.75,29.55,9,2,27,0.00
2013-10-24,43.3,38.1,29.1,35.4,29.5,26.0,95,73,51,29.84,29.62,18,7,41,0.02
2013-10-25,45.1,35.9,27.5,30.6,26.5,21.6,90,71,40,30.10,29.84,12,3,33,0.00
2013-10-26,46.0,39.1,27.2,30.6,25.9,20.9,90,62,37,30.10,29.80,16,5,38,0.00
2013-10-27,49.2,41.5,31.3,32.7,28.7,24.7,81,61,42,30.01,29.73,12,4,37,0.00
2013-10-28,50.4,37.6,26.3,32.3,26.9,19.1,88,66,46,30.33,30.01,16,5,38,0.00
2013-10-29,44.9,29.5,19.4,21.8,15.7,3.6,89,61,19,30.45,30.33,7,1,22,0.00
2013-10-30,46.0,33.4,25.3,31.8,25.5,16.5,93,73,57,30.34,30.17,13,2,32,0.00
2013-10-31,58.1,43.0,29.4,55.8,41.7,28.1,100,95,82,30.22,29.68,13,2,42,0.24
2013-11-1,64.2,58.4,51.3,60.0,50.7,39.7,93,77,53,29.67,29.32,23,12,55,0.54
2013-11-2,58.9,48.2,36.3,45.2,40.0,34.1,100,76,47,29.75,29.57,11,3,29,0.10
2013-11-3,41.2,33.3,24.7,33.5,18.0,9.9,82,55,31,30.43,29.74,13,5,32,0.00
2013-11-4,40.8,27.3,18.9,17.3,13.7,6.5,84,60,25,30.68,30.43,7,1,18,0.00
2013-11-5,47.1,32.0,20.8,31.2,23.5,16.6,90,73,42,30.69,30.45,11,1,24,0.00
2013-11-6,56.3,45.1,34.0,43.2,37.4,30.8,93,75,56,30.45,29.94,19,5,41,0.00
2013-11-7,53.9,47.2,35.6,52.5,42.9,26.8,96,85,72,29.94,29.66,21,7,44,0.14
2013-11-8,41.3,33.3,27.3,29.7,23.4,19.6,79,67,51,30.03,29.79,16,6,41,0.00
2013-11-9,40.6,34.0,29.0,27.0,20.4,16.3,75,58,39,30.16,29.97,13,4,36,0.00
2013-11-10,43.1,37.1,31.8,37.8,33.1,28.6,100,86,69,29.97,29.69,15,4,33,0.05
2013-11-11,46.5,38.4,32.4,28.7,24.5,16.4,75,58,30,30.05,29.82,16,8,40,0.00
2013-11-12,41.1,29.1,23.6,33.0,17.0,10.0,85,61,45,30.17,29.82,14,7,37,0.00
2013-11-13,30.6,24.2,18.8,15.4,9.6,4.0,71,54,32,30.28,30.07,15,6,34,0.00
2013-11-14,44.5,33.2,27.5,24.9,19.7,13.1,77,58,44,30.07,30.00,20,6,37,0.00
2013-11-15,54.2,39.5,30.0,23.2,14.5,7.6,69,39,17,30.15,30.05,19,6,33,0.00
2013-11-16,58.4,39.4,29.3,29.8,24.6,17.4,90,60,24,30.30,30.15,11,1,21,0.00
2013-11-17,44.1,38.3,27.9,44.1,35.8,25.3,100,91,63,30.28,29.81,18,5,34,0.06
2013-11-18,59.0,48.7,40.2,56.7,40.1,27.2,100,75,40,29.81,29.44,24,8,51,0.32
2013-11-19,41.6,32.0,26.6,27.9,16.4,11.3,69,52,42,30.30,29.60,24,9,47,0.00
2013-11-20,37.2,26.2,18.6,14.9,12.5,6.2,81,58,28,30.63,30.30,11,3,32,0.00
2013-11-21,43.3,29.4,14.4,25.1,12.6,-3.6,87,56,14,30.64,30.32,14,3,28,0.00
2013-11-22,41.5,37.3,33.7,41.5,34.6,25.0,100,91,62,30.32,29.77,10,2,24,0.17
2013-11-23,41.1,32.4,22.2,40.9,21.9,8.8,100,66,39,29.90,29.73,18,9,51,0.01
2013-11-24,22.2,16.9,12.4,17.3,-1.1,-10.2,85,47,28,30.17,29.75,28,13,63,0.00
2013-11-25,27.2,18.7,8.1,10.3,-1.1,-11.4,60,42,24,30.35,30.17,15,6,32,0.00
2013-11-26,33.2,29.0,25.3,28.5,21.0,8.6,93,73,46,30.27,30.04,12,4,26,0.00
2013-11-27,45.1,37.6,30.3,45.1,37.1,26.6,100,98,85,30.04,29.26,19,6,40,1.37
2013-11-28,30.6,22.3,11.4,27.0,10.0,0.2,90,60,35,30.40,29.41,20,9,47,0.01
2013-11-29,25.8,15.0,6.9,9.3,4.4,-0.9,84,66,31,30.75,30.40,12,2,27,0.00
2013-11-30,27.3,16.5,3.2,14.2,5.2,-1.8,82,63,34,30.81,30.38,9,2,21,0.00
2013-12-1,37.2,31.0,25.1,30.7,25.0,13.5,92,78,61,30.38,30.01,4,0,11,0.00
2013-12-2,37.6,34.1,31.9,35.3,32.8,30.8,100,95,85,30.01,29.88,1,0,11,0.00
2013-12-3,40.8,31.2,25.6,35.5,29.9,24.4,100,95,73,29.95,29.85,10,1,17,0.00
2013-12-4,39.3,30.0,24.5,29.3,23.3,19.7,100,77,50,30.17,29.94,10,2,29,0.00
2013-12-5,37.6,33.4,24.5,37.3,30.8,22.2,100,91,70,30.18,29.87,11,4,31,0.00
2013-12-6,49.9,39.8,30.6,49.9,35.6,24.3,100,86,64,30.11,29.82,12,4,29,0.23
2013-12-7,30.7,28.2,23.3,28.3,20.4,11.8,93,73,51,30.41,30.06,14,4,35,0.01
2013-12-8,25.8,22.8,18.0,16.0,11.0,8.5,78,61,49,30.55,30.41,9,2,21,0.00
2013-12-9,31.0,25.0,20.8,30.6,21.2,8.8,100,86,54,30.47,29.85,17,5,38,0.00
2013-12-10,31.5,26.4,17.7,28.7,19.1,6.1,92,75,43,29.92,29.75,14,5,36,0.00
2013-12-11,26.7,20.0,10.5,16.8,10.3,4.6,86,67,41,30.12,29.92,20,6,42,0.00
2013-12-12,18.4,13.9,10.0,12.6,1.4,-9.9,83,60,28,30.24,29.99,22,7,40,0.00
2013-12-13,20.3,12.6,0.9,13.4,4.5,-8.1,83,70,59,30.40,29.90,14,4,29,0.00
2013-12-14,10.4,4.6,-2.2,6.3,-5.8,-12.1,83,63,36,30.61,30.19,13,3,32,0.00
2013-12-15,23.2,17.9,9.9,21.0,14.8,5.8,91,87,83,30.19,29.48,20,8,45,0.00
2013-12-16,20.2,14.8,0.7,14.8,3.6,-6.8,88,63,36,30.19,29.67,19,8,42,0.00
2013-12-17,11.7,1.9,-12.8,7.5,-4.5,-20.1,83,74,55,30.28,30.00,12,2,28,0.00
2013-12-18,27.8,17.2,6.9,18.0,11.7,2.1,88,79,64,30.01,29.89,12,4,27,0.00
2013-12-19,34.3,28.2,22.9,25.4,20.3,18.0,86,73,54,30.06,29.90,16,6,34,0.01
2013-12-20,41.5,34.8,29.3,34.4,29.4,25.5,90,81,59,30.06,29.86,10,1,21,0.17
2013-12-21,51.9,45.0,40.1,46.5,39.4,31.8,100,81,67,29.88,29.79,17,6,33,0.40
2013-12-22,42.1,34.9,31.6,42.1,34.9,31.6,100,100,97,29.98,29.70,21,8,42,0.06
2013-12-23,34.7,32.1,30.6,34.7,31.9,26.7,100,100,84,30.10,29.95,10,2,28,0.25
2013-12-24,30.9,24.6,15.6,26.6,14.0,3.6,84,64,47,30.20,30.03,16,5,36,0.00
2013-12-25,17.7,11.4,3.9,5.1,-1.5,-6.8,70,56,37,30.51,30.19,13,4,30,0.00
2013-12-26,23.6,19.0,14.1,20.3,13.2,0.8,90,78,54,30.45,30.08,12,3,26,0.00
2013-12-27,28.4,22.9,16.9,19.5,16.8,13.7,90,78,60,30.21,30.15,15,4,39,0.00
2013-12-28,37.8,30.7,21.4,29.1,23.3,16.8,93,74,58,30.16,29.94,20,8,36,0.06
2013-12-29,36.5,31.1,26.7,32.2,28.3,24.1,100,90,75,29.97,29.55,5,0,14,0.01
2013-12-30,33.4,24.0,2.8,33.1,18.5,-3.2,100,80,56,30.16,29.53,17,5,43,0.02
2013-12-31,14.9,6.3,-5.4,10.1,-0.8,-11.6,84,73,54,30.16,30.02,10,2,28,0.00
2014-1-1,17.3,10.2,2.2,7.8,2.7,-2.9,81,72,54,30.37,30.12,15,4,36,0.00
2014-1-2,9.7,4.7,-1.6,3.5,-1.5,-8.2,78,75,72,30.36,29.92,7,2,18,0.00